Regional Weather Roundup
Issued by NWS

Home | Current Version | Previous Version | Text Only | Print | Product List | Glossary Off
Versions: 1 2 3 4 5 6 7 8 9 10 11 12 13 14 15 16 17 18 19 20 21 22 23 24 25 26 27 28 29 30 31 32 33 34 35 36 37 38 39 40 41 42 43 44 45 46 47 48 49 50

000
ASUS45 KBOI 050310
RWRID
WEATHER ROUNDUP FOR IDAHO
NATIONAL WEATHER SERVICE BOISE ID
800 PM MST WED MAR 04 2015

NOTE: "FAIR" INDICATES FEW OR NO CLOUDS BELOW 12000 FEET
WITH NO SIGNIFICANT WEATHER AND/OR OBSTRUCTIONS TO VISIBILITY

IDZ012-014-050400-
SOUTHWEST IDAHO


CITY           SKY/WX    TMP DP  RH WIND       PRES   REMARKS
BOISE          CLEAR     38  11  32 CALM      30.28R
CALDWELL       CLEAR     36   9  32 SE3       30.31R
MOUNTAIN HOME  CLEAR     34   9  34 NW6       30.28R WCI  29
$$

IDZ016-017-050400-
SOUTHCENTRAL IDAHO


CITY           SKY/WX    TMP DP  RH WIND       PRES   REMARKS
JEROME         CLEAR     33   9  36 S3        30.26R
TWIN FALLS     CLEAR     27   8  44 S9        30.26R WCI  18
$$

IDZ019>023-050400-
SOUTHEAST IDAHO


CITY           SKY/WX    TMP DP  RH WIND       PRES   REMARKS
IDAHO FALLS    CLEAR     28   9  44 S7        30.23S WCI  21
POCATELLO      CLEAR     29  14  53 SW10      30.25R WCI  20
REXBURG        CLEAR     24   9  52 S5        30.23R WCI  18
$$

IDZ006-010-011-018-031-032-050400-
CENTRAL IDAHO MOUNTAINS


CITY           SKY/WX    TMP DP  RH WIND       PRES   REMARKS
MCCALL         CLEAR     27   9  46 NE5       30.21R WCI  22
HAILEY         CLEAR     28  18  64 SE7       30.22R WCI  21
STANLEY          N/A     22   4  46 VRB3      30.19R
SALMON         PTCLDY    28   9  43 CALM      30.20R
CHALLIS        CLEAR     27   7  42 W5        30.17R WCI  22
$$

IDZ002-004-006-007-026-050400-
NORTHERN IDAHO


CITY           SKY/WX    TMP DP  RH WIND       PRES   REMARKS
LEWISTON       NOT AVBL
LOWELL         NOT AVBL
COEUR D`ALENE  CLEAR     36  14  41 SE7       30.23S WCI  30
MULLAN PASS    CLEAR     20   8  60 NW7       30.14R WCI  11
$$



USA.gov is the U.S. government's official web portal to all federal, state and local government web resources and services.